| time (UTC) | temp F | wind direction | speed knots | gust knots | rain 1hr in | rain 24hr in | rain mn in | humidity % | barometer mb |
| 20260507182023 | 52 | 0 | 0.0 | 0.0 | 0.00 | 0.00 | 0.00 | 86 | 1020.8 |
| 20260507181020 | 53 | 0 | 0.0 | 0.0 | 0.00 | 0.00 | 0.00 | 84 | 1020.8 |
| 20260507175021 | 54 | 0 | 0.0 | 0.0 | 0.00 | 0.00 | 0.00 | 81 | 1020.7 |
| 20260507174031 | 54 | 0 | 0.0 | 0.0 | 0.00 | 0.00 | 0.00 | 77 | 1020.6 |
| 20260507173021 | 54 | 0 | 0.0 | 0.0 | 0.00 | 0.00 | 0.00 | 74 | 1020.6 |
| 20260507172022 | 54 | 0 | 0.0 | 0.0 | 0.00 | 0.00 | 0.00 | 73 | 1020.6 |
| 20260507170023 | 55 | 0 | 0.0 | 0.0 | 0.00 | 0.00 | 0.00 | 71 | 1020.5 |
| 20260507165024 | 55 | 0 | 0.0 | 0.0 | 0.00 | 0.00 | 0.00 | 68 | 1020.5 |
| 20260507164021 | 55 | 0 | 0.0 | 0.0 | 0.00 | 0.00 | 0.00 | 67 | 1020.4 |
| 20260507163022 | 55 | 0 | 0.0 | 0.0 | 0.00 | 0.00 | 0.00 | 67 | 1020.4 |
| 20260507162023 | 55 | 0 | 0.0 | 0.0 | 0.00 | 0.00 | 0.00 | 66 | 1020.4 |
| 20260507161043 | 55 | 0 | 0.0 | 0.0 | 0.00 | 0.00 | 0.00 | 65 | 1020.5 |
| 20260507160021 | 55 | 0 | 0.0 | 0.0 | 0.00 | 0.00 | 0.00 | 65 | 1020.5 |
| 20260507155021 | 55 | 0 | 0.0 | 0.0 | 0.00 | 0.00 | 0.00 | 65 | 1020.5 |
| 20260507154021 | 55 | 0 | 0.0 | 0.0 | 0.00 | 0.00 | 0.00 | 66 | 1020.5 |
| 20260507153020 | 55 | 0 | 0.0 | 0.0 | 0.00 | 0.00 | 0.00 | 65 | 1020.5 |
| 20260507152047 | 55 | 0 | 0.0 | 0.0 | 0.00 | 0.00 | 0.00 | 67 | 1020.5 |
| 20260507151020 | 55 | 0 | 0.0 | 0.0 | 0.00 | 0.00 | 0.00 | 69 | 1020.5 |
| 20260507150021 | 55 | 0 | 0.0 | 0.0 | 0.00 | 0.00 | 0.00 | 69 | 1020.5 |
| 20260507145021 | 55 | 0 | 0.0 | 0.0 | 0.00 | 0.00 | 0.00 | 68 | 1020.5 |
| 20260507144021 | 55 | 0 | 0.0 | 0.0 | 0.00 | 0.00 | 0.00 | 69 | 1020.5 |
| 20260507143021 | 55 | 0 | 0.0 | 0.0 | 0.00 | 0.00 | 0.00 | 69 | 1020.5 |
| 20260507141044 | 55 | 0 | 0.0 | 0.0 | 0.00 | 0.00 | 0.00 | 68 | 1020.6 |
| 20260507140022 | 55 | 0 | 0.0 | 0.0 | 0.00 | 0.00 | 0.00 | 67 | 1020.5 |
| 20260507135041 | 56 | 0 | 0.0 | 0.0 | 0.00 | 0.00 | 0.00 | 67 | 1020.6 |
| 20260507134017 | 55 | 0 | 0.0 | 0.0 | 0.00 | 0.00 | 0.00 | 67 | 1020.6 |
| 20260507133043 | 55 | 0 | 0.0 | 0.0 | 0.00 | 0.00 | 0.00 | 68 | 1020.6 |
| 20260507132020 | 56 | 0 | 0.0 | 0.0 | 0.00 | 0.00 | 0.00 | 69 | 1020.6 |
| 20260507131016 | 55 | 0 | 0.0 | 0.0 | 0.00 | 0.00 | 0.00 | 68 | 1020.7 |
| 20260507130021 | 55 | 0 | 0.0 | 0.0 | 0.00 | 0.00 | 0.00 | 68 | 1020.7 |
| 20260507125021 | 55 | 0 | 0.0 | 0.0 | 0.00 | 0.00 | 0.00 | 67 | 1020.7 |
| 20260507124020 | 55 | 0 | 0.0 | 0.0 | 0.00 | 0.00 | 0.00 | 68 | 1020.7 |
| 20260507122020 | 54 | 0 | 0.0 | 0.0 | 0.00 | 0.00 | 0.00 | 69 | 1020.7 |
| 20260507121045 | 55 | 0 | 0.0 | 0.0 | 0.00 | 0.00 | 0.00 | 70 | 1020.7 |
| 20260507120020 | 55 | 0 | 0.0 | 0.0 | 0.00 | 0.00 | 0.00 | 70 | 1020.7 |
| 20260507115021 | 54 | 0 | 0.0 | 0.0 | 0.00 | 0.00 | 0.00 | 70 | 1020.7 |
| 20260507113020 | 54 | 0 | 0.0 | 0.0 | 0.00 | 0.00 | 0.00 | 73 | 1020.6 |
| 20260507112030 | 54 | 0 | 0.0 | 0.0 | 0.00 | 0.00 | 0.00 | 73 | 1020.7 |
| 20260507111020 | 53 | 0 | 0.0 | 0.0 | 0.00 | 0.00 | 0.00 | 74 | 1020.7 |
| 20260507110021 | 53 | 0 | 0.0 | 0.0 | 0.00 | 0.00 | 0.00 | 75 | 1020.8 |
| 20260507105021 | 53 | 0 | 0.0 | 0.0 | 0.00 | 0.00 | 0.00 | 75 | 1020.9 |
| 20260507104021 | 53 | 0 | 0.0 | 0.0 | 0.00 | 0.01 | 0.00 | 73 | 1020.9 |
| 20260507103042 | 53 | 0 | 0.0 | 0.0 | 0.00 | 0.01 | 0.00 | 75 | 1020.9 |
| 20260507102020 | 53 | 0 | 0.0 | 0.0 | 0.00 | 0.01 | 0.00 | 73 | 1020.8 |
| 20260507101021 | 53 | 0 | 0.0 | 0.0 | 0.00 | 0.01 | 0.00 | 75 | 1020.8 |
| 20260507095044 | 51 | 0 | 0.0 | 0.0 | 0.00 | 0.02 | 0.00 | 77 | 1020.8 |
| 20260507094020 | 51 | 0 | 0.0 | 0.0 | 0.00 | 0.02 | 0.00 | 79 | 1020.8 |
| 20260507093018 | 51 | 0 | 0.0 | 0.0 | 0.00 | 0.02 | 0.00 | 79 | 1020.7 |
| 20260507092020 | 52 | 0 | 0.0 | 0.0 | 0.00 | 0.02 | 0.00 | 77 | 1020.5 |
| 20260507090045 | 52 | 0 | 0.0 | 0.0 | 0.00 | 0.03 | 0.00 | 79 | 1020.5 |
| 20260507085020 | 52 | 0 | 0.0 | 0.0 | 0.00 | 0.03 | 0.00 | 80 | 1020.5 |
| 20260507084020 | 51 | 0 | 0.0 | 0.0 | 0.00 | 0.03 | 0.00 | 80 | 1020.5 |
| 20260507083021 | 51 | 0 | 0.0 | 0.0 | 0.00 | 0.04 | 0.00 | 80 | 1020.5 |
| 20260507082022 | 51 | 0 | 0.0 | 0.0 | 0.00 | 0.04 | 0.00 | 81 | 1020.5 |
| 20260507081043 | 50 | 0 | 0.0 | 0.0 | 0.00 | 0.04 | 0.00 | 81 | 1020.4 |
| 20260507080035 | 50 | 0 | 0.0 | 0.0 | 0.00 | 0.04 | 0.00 | 82 | 1020.4 |
| 20260507075028 | 49 | 0 | 0.0 | 0.0 | 0.00 | 0.04 | 0.00 | 84 | 1020.4 |
| 20260507074038 | 49 | 0 | 0.0 | 0.0 | 0.00 | 0.04 | 0.00 | 85 | 1020.3 |
| 20260507073021 | 49 | 0 | 0.0 | 0.0 | 0.00 | 0.04 | 0.00 | 85 | 1020.3 |
| 20260507072020 | 49 | 0 | 0.0 | 0.0 | 0.00 | 0.04 | 0.00 | 86 | 1020.3 |
| 20260507070039 | 48 | 0 | 0.0 | 0.0 | 0.00 | 0.04 | 0.00 | 86 | 1020.2 |
| 20260507065041 | 48 | 0 | 0.0 | 0.0 | 0.00 | 0.05 | 0.00 | 87 | 1020.2 |
| 20260507063042 | 47 | 0 | 0.0 | 0.0 | 0.00 | 0.06 | 0.00 | 90 | 1020.1 |
| 20260507062041 | 46 | 0 | 0.0 | 0.0 | 0.00 | 0.07 | 0.00 | 90 | 1020.0 |
| 20260507061043 | 46 | 0 | 0.0 | 0.0 | 0.00 | 0.07 | 0.00 | 91 | 1020.0 |
| 20260507060022 | 46 | 0 | 0.0 | 0.0 | 0.00 | 0.08 | 0.00 | 92 | 1019.9 |
| 20260507055023 | 45 | 0 | 0.0 | 0.0 | 0.00 | 0.09 | 0.00 | 93 | 1019.8 |
| 20260507054022 | 45 | 0 | 0.0 | 0.0 | 0.00 | 0.10 | 0.00 | 94 | 1019.7 |
| 20260507053020 | 45 | 0 | 0.0 | 0.0 | 0.00 | 0.12 | 0.00 | 95 | 1019.7 |
| 20260507052020 | 44 | 0 | 0.0 | 0.0 | 0.00 | 0.13 | 0.00 | 96 | 1019.6 |
| 20260507051042 | 44 | 0 | 0.0 | 0.0 | 0.00 | 0.14 | 0.00 | 96 | 1019.5 |
| 20260507050037 | 44 | 0 | 0.0 | 0.0 | 0.00 | 0.15 | 0.00 | 97 | 1019.4 |
| 20260507045038 | 44 | 0 | 0.0 | 0.0 | 0.00 | 0.16 | 0.00 | 97 | 1019.3 |
| 20260507044021 | 44 | 0 | 0.0 | 0.0 | 0.00 | 0.17 | 0.00 | 97 | 1019.2 |
| 20260507043042 | 44 | 0 | 0.0 | 0.0 | 0.00 | 0.18 | 0.00 | 97 | 1019.2 |
| 20260507042021 | 44 | 0 | 0.0 | 0.0 | 0.00 | 0.19 | 0.00 | 97 | 1019.1 |
| 20260507041042 | 44 | 0 | 0.0 | 0.0 | 0.00 | 0.19 | 0.00 | 96 | 1019.0 |
| 20260507040021 | 44 | 0 | 0.0 | 0.0 | 0.00 | 0.20 | 0.00 | 96 | 1019.0 |
| 20260507035021 | 44 | 0 | 0.0 | 0.0 | 0.00 | 0.20 | 0.00 | 96 | 1018.9 |
| 20260507034021 | 44 | 0 | 0.0 | 0.0 | 0.00 | 0.20 | 0.00 | 96 | 1018.9 |
| 20260507032017 | 44 | 0 | 0.0 | 0.0 | 0.00 | 0.20 | 0.00 | 96 | 1018.9 |
| 20260507031022 | 44 | 0 | 0.0 | 0.0 | 0.00 | 0.20 | 0.00 | 96 | 1018.8 |
| 20260507025044 | 44 | 0 | 0.0 | 0.0 | 0.00 | 0.21 | 0.00 | 96 | 1018.7 |
| 20260507024021 | 44 | 0 | 0.0 | 0.0 | 0.00 | 0.22 | 0.00 | 96 | 1018.7 |
| 20260507023040 | 44 | 0 | 0.0 | 0.0 | 0.00 | 0.22 | 0.00 | 96 | 1018.6 |
| 20260507022021 | 44 | 0 | 0.0 | 0.0 | 0.00 | 0.23 | 0.00 | 96 | 1018.5 |
| 20260507021042 | 44 | 0 | 0.0 | 0.0 | 0.00 | 0.23 | 0.00 | 97 | 1018.4 |
| 20260507020041 | 44 | 0 | 0.0 | 0.0 | 0.00 | 0.24 | 0.00 | 97 | 1018.4 |
| 20260507015020 | 44 | 0 | 0.0 | 0.0 | 0.00 | 0.24 | 0.00 | 97 | 1018.3 |
| 20260507014020 | 44 | 0 | 0.0 | 0.0 | 0.00 | 0.25 | 0.00 | 97 | 1018.3 |
| 20260507013017 | 44 | 0 | 0.0 | 0.0 | 0.00 | 0.26 | 0.00 | 97 | 1018.3 |
| 20260507012020 | 44 | 0 | 0.0 | 0.0 | 0.00 | 0.27 | 0.00 | 97 | 1018.3 |
| 20260507011017 | 44 | 0 | 0.0 | 0.0 | 0.00 | 0.28 | 0.00 | 97 | 1018.3 |
| 20260507010042 | 44 | 0 | 0.0 | 0.0 | 0.00 | 0.28 | 0.00 | 97 | 1018.3 |
| 20260507005022 | 44 | 0 | 0.0 | 0.0 | 0.00 | 0.30 | 0.00 | 97 | 1018.3 |
| 20260507004022 | 44 | 0 | 0.0 | 0.0 | 0.00 | 0.30 | 0.00 | 97 | 1018.2 |
| 20260507002021 | 44 | 0 | 0.0 | 0.0 | 0.00 | 0.31 | 0.00 | 97 | 1018.2 |
| 20260507001021 | 44 | 0 | 0.0 | 0.0 | 0.00 | 0.31 | 0.00 | 97 | 1018.2 |
| 20260507000040 | 43 | 0 | 0.0 | 0.0 | 0.00 | 0.32 | 0.00 | 97 | 1018.2 |
| 20260506235022 | 43 | 0 | 0.0 | 0.0 | 0.00 | 0.32 | 0.00 | 98 | 1018.2 |
| 20260506234022 | 43 | 0 | 0.0 | 0.0 | 0.00 | 0.33 | 0.00 | 98 | 1018.1 |
| 20260506233021 | 43 | 0 | 0.0 | 0.0 | 0.00 | 0.34 | 0.00 | 98 | 1018.1 |
| 20260506232022 | 42 | 0 | 0.0 | 0.0 | 0.00 | 0.34 | 0.00 | 98 | 1018.1 |
| 20260506230022 | 41 | 0 | 0.0 | 0.0 | 0.00 | 0.35 | 0.00 | 97 | 1018.0 |
| 20260506224045 | 39 | 0 | 0.0 | 0.0 | 0.00 | 0.36 | 0.00 | 96 | 1018.0 |
| 20260506223032 | 39 | 0 | 0.0 | 0.0 | 0.00 | 0.37 | 0.00 | 96 | 1017.9 |
| 20260506222022 | 40 | 0 | 0.0 | 0.0 | 0.00 | 0.37 | 0.00 | 95 | 1017.9 |
| 20260506215047 | 41 | 0 | 0.0 | 0.0 | 0.00 | 0.39 | 0.38 | 93 | 1017.6 |
| 20260506214022 | 42 | 0 | 0.0 | 0.0 | 0.00 | 0.39 | 0.38 | 93 | 1017.4 |
| 20260506213032 | 42 | 0 | 0.0 | 0.0 | 0.00 | 0.39 | 0.38 | 92 | 1017.3 |
| 20260506212049 | 44 | 0 | 0.0 | 0.0 | 0.00 | 0.39 | 0.38 | 91 | 1017.1 |
| 20260506211038 | 45 | 0 | 0.0 | 0.0 | 0.00 | 0.40 | 0.38 | 90 | 1016.9 |
| 20260506210037 | 45 | 0 | 0.0 | 0.0 | 0.00 | 0.41 | 0.38 | 89 | 1016.8 |
| 20260506205042 | 46 | 0 | 0.0 | 0.0 | 0.00 | 0.41 | 0.38 | 88 | 1016.7 |
| 20260506204044 | 46 | 0 | 0.0 | 0.0 | 0.00 | 0.42 | 0.38 | 86 | 1016.5 |
| 20260506202022 | 48 | 0 | 0.0 | 0.0 | 0.00 | 0.43 | 0.38 | 85 | 1016.3 |
| 20260506193022 | 49 | 0 | 0.0 | 0.0 | 0.00 | 0.46 | 0.38 | 91 | 1015.7 |
| 20260506192026 | 49 | 0 | 0.0 | 0.0 | 0.00 | 0.46 | 0.38 | 91 | 1015.6 |
| 20260506191021 | 50 | 0 | 0.0 | 0.0 | 0.00 | 0.47 | 0.38 | 90 | 1015.5 |
| 20260506190022 | 50 | 0 | 0.0 | 0.0 | 0.00 | 0.48 | 0.38 | 89 | 1015.4 |
| 20260506185037 | 50 | 0 | 0.0 | 0.0 | 0.00 | 0.49 | 0.38 | 90 | 1015.3 |
| 20260506184022 | 50 | 0 | 0.0 | 0.0 | 0.00 | 0.50 | 0.38 | 90 | 1015.1 |
| 20260506183022 | 50 | 0 | 0.0 | 0.0 | 0.00 | 0.51 | 0.38 | 91 | 1015.0 |